| time (UTC) | temp F | wind direction | speed knots | gust knots | rain 1hr in | rain 24hr in | rain mn in | humidity % | barometer mb |
| 20260506111017 | 55 | 23 | 3.5 | 9.6 | 0.00 | 0.00 | 0.00 | 76 | 1010.8 |
| 20260506110017 | 55 | 315 | 3.5 | 10.4 | 0.00 | 0.00 | 0.00 | 76 | 1010.8 |
| 20260506105017 | 56 | 23 | 3.5 | 7.8 | 0.00 | 0.00 | 0.00 | 75 | 1010.7 |
| 20260506104037 | 56 | 23 | 3.5 | 7.8 | 0.00 | 0.00 | 0.00 | 76 | 1010.5 |
| 20260506103017 | 56 | 338 | 2.6 | 7.0 | 0.00 | 0.00 | 0.00 | 76 | 1010.5 |
| 20260506102017 | 56 | 45 | 1.7 | 4.3 | 0.00 | 0.00 | 0.00 | 76 | 1010.4 |
| 20260506101017 | 56 | 23 | 2.6 | 4.3 | 0.00 | 0.00 | 0.00 | 76 | 1009.9 |
| 20260506100017 | 57 | 315 | 2.6 | 5.2 | 0.00 | 0.00 | 0.00 | 76 | 1009.9 |
| 20260506095509 | 57 | 45 | 1.7 | 2.6 | 0.00 | 0.00 | 0.00 | 76 | 1009.7 |
| 20260506094537 | 57 | 23 | 2.6 | 7.8 | 0.00 | 0.00 | 0.00 | 76 | 1009.8 |
| 20260506093517 | 57 | 23 | 2.6 | 7.0 | 0.00 | 0.00 | 0.00 | 76 | 1009.8 |
| 20260506092517 | 57 | 45 | 2.6 | 6.1 | 0.00 | 0.00 | 0.00 | 76 | 1009.5 |
| 20260506091517 | 57 | 45 | 1.7 | 7.0 | 0.00 | 0.00 | 0.00 | 76 | 1009.4 |
| 20260506090537 | 57 | 0 | 1.7 | 4.3 | 0.00 | 0.00 | 0.00 | 76 | 1009.5 |
| 20260506085517 | 58 | 0 | 2.6 | 5.2 | 0.00 | 0.00 | 0.00 | 77 | 1009.4 |
| 20260506084537 | 58 | 68 | 2.6 | 6.1 | 0.00 | 0.00 | 0.00 | 76 | 1009.3 |
| 20260506083517 | 58 | 23 | 3.5 | 8.7 | 0.00 | 0.00 | 0.00 | 76 | 1009.3 |
| 20260506082517 | 58 | 338 | 3.5 | 7.0 | 0.00 | 0.00 | 0.00 | 77 | 1009.1 |
| 20260506081517 | 58 | 338 | 1.7 | 5.2 | 0.00 | 0.00 | 0.00 | 77 | 1009.1 |
| 20260506080517 | 58 | 338 | 2.6 | 8.7 | 0.00 | 0.00 | 0.00 | 77 | 1009.2 |
| 20260506073017 | 59 | 45 | 1.7 | 3.5 | 0.00 | 0.00 | 0.00 | 78 | 1008.5 |
| 20260506072057 | 59 | 45 | 2.6 | 7.8 | 0.00 | 0.00 | 0.00 | 78 | 1008.5 |
| 20260506071037 | 59 | 45 | 2.6 | 5.2 | 0.00 | 0.00 | 0.00 | 78 | 1008.7 |
| 20260506062017 | 60 | 45 | 1.7 | 5.2 | 0.00 | 0.00 | 0.00 | 78 | 1008.7 |
| 20260506061017 | 60 | 23 | 2.6 | 7.0 | 0.00 | 0.00 | 0.00 | 78 | 1008.7 |
| 20260506051036 | 61 | 338 | 2.6 | 7.8 | 0.00 | 0.00 | 0.00 | 79 | 1008.8 |
| 20260506045038 | 61 | 0 | 2.6 | 7.8 | 0.00 | 0.00 | 0.00 | 79 | 1008.6 |
| 20260506044017 | 62 | 45 | 3.5 | 9.6 | 0.00 | 0.00 | 0.00 | 79 | 1008.3 |
| 20260506042958 | 62 | 23 | 2.6 | 7.0 | 0.00 | 0.00 | 0.00 | 78 | 1008.4 |
| 20260506042017 | 63 | 68 | 2.6 | 9.6 | 0.00 | 0.00 | 0.00 | 78 | 1008.5 |
| 20260506041017 | 63 | 23 | 2.6 | 8.7 | 0.00 | 0.00 | 0.00 | 78 | 1008.4 |
| 20260506040037 | 63 | 45 | 3.5 | 9.6 | 0.00 | 0.00 | 0.00 | 78 | 1008.4 |
| 20260506035017 | 64 | 45 | 3.5 | 9.6 | 0.00 | 0.00 | 0.00 | 78 | 1007.9 |
| 20260506034017 | 64 | 315 | 2.6 | 7.0 | 0.00 | 0.00 | 0.00 | 78 | 1007.8 |
| 20260506033057 | 64 | 23 | 3.5 | 7.0 | 0.00 | 0.00 | 0.00 | 77 | 1007.4 |
| 20260506032017 | 65 | 23 | 4.3 | 9.6 | 0.00 | 0.00 | 0.00 | 76 | 1007.3 |
| 20260506031017 | 65 | 315 | 3.5 | 5.2 | 0.00 | 0.00 | 0.00 | 76 | 1007.3 |
| 20260506030017 | 66 | 0 | 2.6 | 7.8 | 0.00 | 0.00 | 0.00 | 75 | 1007.1 |
| 20260506025017 | 67 | 338 | 2.6 | 7.0 | 0.00 | 0.00 | 0.00 | 75 | 1007.0 |
| 20260506024017 | 68 | 338 | 3.5 | 9.6 | 0.00 | 0.00 | 0.00 | 75 | 1006.8 |
| 20260506023017 | 68 | 0 | 2.6 | 6.1 | 0.00 | 0.00 | 0.00 | 75 | 1006.6 |
| 20260506022017 | 68 | 338 | 2.6 | 4.3 | 0.00 | 0.00 | 0.00 | 75 | 1006.3 |
| 20260506021017 | 68 | 338 | 2.6 | 6.1 | 0.00 | 0.00 | 0.00 | 74 | 1006.0 |
| 20260506020017 | 68 | 338 | 2.6 | 7.8 | 0.00 | 0.00 | 0.00 | 74 | 1006.0 |
| 20260506015017 | 69 | 23 | 1.7 | 5.2 | 0.00 | 0.00 | 0.00 | 73 | 1005.5 |
| 20260506014017 | 69 | 45 | 2.6 | 7.0 | 0.00 | 0.00 | 0.00 | 73 | 1005.1 |
| 20260506013017 | 69 | 45 | 2.6 | 7.8 | 0.00 | 0.00 | 0.00 | 73 | 1005.4 |
| 20260506012017 | 70 | 45 | 2.6 | 8.7 | 0.00 | 0.00 | 0.00 | 73 | 1004.6 |
| 20260506011017 | 71 | 338 | 2.6 | 5.2 | 0.00 | 0.00 | 0.00 | 72 | 1004.9 |
| 20260506010017 | 71 | 315 | 3.5 | 10.4 | 0.00 | 0.00 | 0.00 | 71 | 1004.5 |
| 20260506005017 | 72 | 315 | 1.7 | 7.0 | 0.00 | 0.00 | 0.00 | 70 | 1004.4 |
| 20260506004017 | 72 | 23 | 2.6 | 7.0 | 0.00 | 0.00 | 0.00 | 69 | 1004.4 |
| 20260506003017 | 73 | 45 | 3.5 | 7.8 | 0.00 | 0.00 | 0.00 | 70 | 1003.8 |
| 20260506002517 | 74 | 338 | 2.6 | 6.1 | 0.00 | 0.00 | 0.00 | 69 | 1003.9 |
| 20260506001517 | 75 | 23 | 2.6 | 7.8 | 0.00 | 0.00 | 0.00 | 69 | 1003.7 |
| 20260506000537 | 76 | 23 | 3.5 | 9.6 | 0.00 | 0.00 | 0.00 | 68 | 1003.7 |
| 20260505235517 | 77 | 338 | 2.6 | 10.4 | 0.00 | 0.00 | 0.00 | 67 | 1003.7 |
| 20260505234517 | 78 | 315 | 2.6 | 7.0 | 0.00 | 0.00 | 0.00 | 66 | 1003.6 |
| 20260505233537 | 79 | 338 | 1.7 | 6.1 | 0.00 | 0.00 | 0.00 | 65 | 1003.5 |
| 20260505232517 | 80 | 315 | 1.7 | 5.2 | 0.00 | 0.00 | 0.00 | 65 | 1003.2 |
| 20260505231517 | 81 | 0 | 2.6 | 5.2 | 0.00 | 0.00 | 0.00 | 64 | 1003.6 |
| 20260505230557 | 82 | 315 | 1.7 | 4.3 | 0.00 | 0.00 | 0.00 | 63 | 1003.3 |
| 20260505225537 | 82 | 315 | 3.5 | 8.7 | 0.00 | 0.00 | 0.00 | 61 | 1003.1 |
| 20260505224517 | 84 | 315 | 2.6 | 6.1 | 0.00 | 0.00 | 0.00 | 61 | 1002.9 |
| 20260505223517 | 84 | 338 | 1.7 | 5.2 | 0.00 | 0.00 | 0.00 | 61 | 1002.7 |
| 20260505222537 | 85 | 270 | 1.7 | 5.2 | 0.00 | 0.00 | 0.00 | 60 | 1002.8 |
| 20260505221517 | 86 | 315 | 2.6 | 5.2 | 0.00 | 0.00 | 0.00 | 57 | 1002.6 |
| 20260505220517 | 87 | 338 | 2.6 | 7.8 | 0.00 | 0.00 | 0.00 | 54 | 1002.6 |
| 20260505215517 | 88 | 338 | 1.7 | 4.3 | 0.00 | 0.00 | 0.00 | 52 | 1002.4 |
| 20260505214517 | 89 | 315 | 2.6 | 6.1 | 0.00 | 0.00 | 0.00 | 51 | 1002.7 |
| 20260505213517 | 90 | 315 | 2.6 | 7.8 | 0.00 | 0.00 | 0.00 | 51 | 1002.6 |
| 20260505212517 | 90 | 315 | 1.7 | 7.0 | 0.00 | 0.00 | 0.00 | 51 | 1002.5 |
| 20260505211517 | 92 | 180 | 2.6 | 6.1 | 0.00 | 0.00 | 0.00 | 50 | 1002.6 |
| 20260505210517 | 93 | 158 | 0.9 | 3.5 | 0.00 | 0.00 | 0.00 | 52 | 1002.6 |
| 20260505205517 | 93 | 180 | 1.7 | 4.3 | 0.00 | 0.00 | 0.00 | 51 | 1002.6 |
| 20260505204517 | 93 | 180 | 1.7 | 5.2 | 0.00 | 0.00 | 0.00 | 50 | 1002.8 |
| 20260505203517 | 94 | 203 | 2.6 | 7.8 | 0.00 | 0.00 | 0.00 | 52 | 1002.9 |
| 20260505202517 | 93 | 225 | 1.7 | 5.2 | 0.00 | 0.00 | 0.00 | 56 | 1003.0 |
| 20260505201517 | 93 | 203 | 3.5 | 9.6 | 0.00 | 0.00 | 0.00 | 53 | 1003.2 |
| 20260505200517 | 93 | 203 | 3.5 | 8.7 | 0.00 | 0.00 | 0.00 | 54 | 1003.2 |
| 20260505195517 | 93 | 203 | 3.5 | 10.4 | 0.00 | 0.00 | 0.00 | 57 | 1003.2 |
| 20260505194537 | 92 | 180 | 1.7 | 7.0 | 0.00 | 0.00 | 0.00 | 56 | 1003.3 |
| 20260505193517 | 92 | 203 | 2.6 | 7.0 | 0.00 | 0.00 | 0.00 | 59 | 1003.4 |
| 20260505192517 | 91 | 203 | 3.5 | 10.4 | 0.00 | 0.00 | 0.00 | 58 | 1003.5 |
| 20260505191514 | 90 | 203 | 3.5 | 8.7 | 0.00 | 0.00 | 0.00 | 59 | 1003.2 |
| 20260505190557 | 90 | 203 | 3.5 | 7.8 | 0.00 | 0.00 | 0.00 | 62 | 1003.2 |
| 20260505185517 | 89 | 203 | 3.5 | 8.7 | 0.00 | 0.00 | 0.00 | 62 | 1003.3 |
| 20260505184537 | 88 | 203 | 2.6 | 7.8 | 0.00 | 0.00 | 0.00 | 63 | 1003.2 |
| 20260505183557 | 87 | 203 | 4.3 | 10.4 | 0.00 | 0.00 | 0.00 | 63 | 1003.5 |
| 20260505182517 | 87 | 203 | 4.3 | 9.6 | 0.00 | 0.00 | 0.00 | 66 | 1003.6 |
| 20260505181520 | 87 | 203 | 5.2 | 11.3 | 0.00 | 0.00 | 0.00 | 64 | 1003.5 |
| 20260505180517 | 87 | 203 | 4.3 | 12.2 | 0.00 | 0.00 | 0.00 | 64 | 1003.5 |
| 20260505175517 | 87 | 203 | 5.2 | 10.4 | 0.00 | 0.00 | 0.00 | 65 | 1003.6 |
| 20260505174517 | 87 | 203 | 5.2 | 14.8 | 0.00 | 0.00 | 0.00 | 64 | 1003.6 |
| 20260505173517 | 86 | 180 | 3.5 | 9.6 | 0.00 | 0.00 | 0.00 | 66 | 1003.4 |
| 20260505172517 | 85 | 203 | 4.3 | 13.0 | 0.00 | 0.00 | 0.00 | 68 | 1003.5 |
| 20260505171558 | 85 | 203 | 4.3 | 10.4 | 0.00 | 0.00 | 0.00 | 68 | 1003.6 |
| 20260505170515 | 84 | 203 | 5.2 | 11.3 | 0.00 | 0.00 | 0.00 | 68 | 1003.5 |
| 20260505165517 | 84 | 203 | 4.3 | 10.4 | 0.00 | 0.00 | 0.00 | 70 | 1003.5 |
| 20260505164517 | 82 | 180 | 3.5 | 8.7 | 0.00 | 0.00 | 0.00 | 72 | 1003.5 |
| 20260505163517 | 82 | 203 | 4.3 | 18.2 | 0.00 | 0.00 | 0.00 | 71 | 1003.4 |
| 20260505162517 | 81 | 203 | 5.2 | 13.9 | 0.00 | 0.00 | 0.00 | 72 | 1003.3 |
| 20260505161537 | 81 | 180 | 5.2 | 11.3 | 0.00 | 0.00 | 0.00 | 72 | 1003.2 |
| 20260505160517 | 81 | 203 | 5.2 | 10.4 | 0.00 | 0.00 | 0.00 | 73 | 1003.3 |
| 20260505152517 | 78 | 180 | 3.5 | 11.3 | 0.00 | 0.00 | 0.00 | 75 | 1003.1 |
| 20260505151517 | 78 | 203 | 3.5 | 8.7 | 0.00 | 0.00 | 0.00 | 76 | 1003.1 |
| 20260505150517 | 78 | 203 | 6.1 | 13.0 | 0.00 | 0.00 | 0.00 | 76 | 1003.0 |
| 20260505140518 | 75 | 203 | 5.2 | 16.5 | 0.00 | 0.00 | 0.00 | 81 | 1002.8 |
| 20260505124537 | 71 | 225 | 5.2 | 12.2 | 0.00 | 0.00 | 0.00 | 86 | 1002.6 |
| 20260505123517 | 71 | 203 | 4.3 | 8.7 | 0.00 | 0.00 | 0.00 | 87 | 1002.3 |
| 20260505122517 | 71 | 180 | 4.3 | 11.3 | 0.00 | 0.00 | 0.00 | 87 | 1002.4 |
| 20260505121517 | 71 | 203 | 4.3 | 9.6 | 0.00 | 0.00 | 0.00 | 87 | 1002.3 |
| 20260505120557 | 71 | 203 | 2.6 | 7.0 | 0.00 | 0.00 | 0.00 | 87 | 1002.2 |
| 20260505115517 | 70 | 203 | 3.5 | 8.7 | 0.00 | 0.00 | 0.00 | 87 | 1002.2 |
| 20260505114537 | 70 | 203 | 4.3 | 9.6 | 0.00 | 0.00 | 0.00 | 87 | 1002.1 |
| 20260505113517 | 70 | 203 | 2.6 | 11.3 | 0.00 | 0.00 | 0.00 | 87 | 1002.0 |
| 20260505112538 | 70 | 180 | 3.5 | 11.3 | 0.00 | 0.00 | 0.00 | 87 | 1001.9 |